Time,TemperatureF,DewpointF,PressureIn,WindDirection,WindDirectionDegrees,WindSpeedMPH,WindSpeedGustMPH,Humidity,HourlyPrecipIn,Conditions,Clouds,dailyrainin,SoftwareType,DateUTC
2013-04-30 00:02:00,52.0,51.0,-100.00,ENE,65,1.0,4.0,97,0.00,,,-99.99,,2013-04-30 04:02:00,
2013-04-30 00:12:00,53.0,52.0,-100.00,NE,55,1.0,3.0,98,0.00,,,-99.99,,2013-04-30 04:12:00,
2013-04-30 00:22:00,52.0,51.0,-100.00,WNW,285,1.0,5.0,97,0.00,,,-99.99,,2013-04-30 04:22:00,
2013-04-30 00:32:00,53.0,52.0,-100.00,West,280,0.0,5.0,98,0.00,,,-99.99,,2013-04-30 04:32:00,
2013-04-30 00:42:00,51.0,50.0,-100.00,WSW,250,1.0,6.0,97,0.00,,,-99.99,,2013-04-30 04:42:00,
2013-04-30 00:52:00,51.0,50.0,-100.00,WSW,250,1.0,6.0,97,0.00,,,-99.99,,2013-04-30 04:52:00,
2013-04-30 01:02:00,53.0,53.0,-100.00,WNW,300,2.0,5.0,98,0.00,,,-99.99,,2013-04-30 05:02:00,
2013-04-30 01:12:00,53.0,52.0,-100.00,WNW,290,2.0,6.0,98,0.00,,,-99.99,,2013-04-30 05:12:00,
2013-04-30 01:22:00,51.0,50.0,-100.00,NNW,330,0.0,5.0,97,0.00,,,-99.99,,2013-04-30 05:22:00,
2013-04-30 01:31:00,50.0,49.0,-100.00,West,260,0.0,4.0,97,0.00,,,-99.99,,2013-04-30 05:31:00,
2013-04-30 01:42:00,49.0,48.0,-100.00,SSE,155,0.0,2.0,97,0.00,,,-99.99,,2013-04-30 05:42:00,
2013-04-30 01:51:00,49.0,49.0,-100.00,WSW,250,0.0,7.0,97,0.00,,,-99.99,,2013-04-30 05:51:00,
2013-04-30 02:02:00,50.0,49.0,-100.00,West,260,1.0,4.0,98,0.00,,,-99.99,,2013-04-30 06:02:00,
2013-04-30 02:12:00,51.0,51.0,-100.00,WNW,285,1.0,7.0,98,0.00,,,-99.99,,2013-04-30 06:12:00,
2013-04-30 02:21:00,49.0,48.0,-100.00,SW,225,0.0,7.0,98,0.00,,,-99.99,,2013-04-30 06:21:00,
2013-04-30 02:32:00,48.0,48.0,-100.00,NNW,340,0.0,3.0,98,0.00,,,-99.99,,2013-04-30 06:32:00,
2013-04-30 02:41:00,49.0,48.0,-100.00,NNW,340,0.0,3.0,98,0.00,,,-99.99,,2013-04-30 06:41:00,
2013-04-30 02:52:00,49.0,48.0,-100.00,WNW,295,1.0,6.0,98,0.00,,,-99.99,,2013-04-30 06:52:00,
2013-04-30 03:01:00,48.0,47.0,-100.00,ENE,65,1.0,2.0,98,0.00,,,-99.99,,2013-04-30 07:01:00,
2013-04-30 03:11:00,48.0,48.0,-100.00,NW,310,0.0,3.0,98,0.00,,,-99.99,,2013-04-30 07:11:00,
2013-04-30 03:21:00,47.0,47.0,-100.00,ENE,60,0.0,2.0,98,0.00,,,-99.99,,2013-04-30 07:21:00,
2013-04-30 03:32:00,47.0,47.0,-100.00,ENE,60,0.0,2.0,98,0.00,,,-99.99,,2013-04-30 07:32:00,
2013-04-30 03:42:00,47.0,47.0,-100.00,ENE,60,0.0,2.0,98,0.00,,,-99.99,,2013-04-30 07:42:00,
2013-04-30 03:52:00,47.0,47.0,-100.00,NNW,335,1.0,4.0,98,0.00,,,-99.99,,2013-04-30 07:52:00,
2013-04-30 04:02:00,46.0,46.0,-100.00,West,275,2.0,5.0,98,0.00,,,-99.99,,2013-04-30 08:02:00,
2013-04-30 04:11:00,47.0,47.0,-100.00,North,350,1.0,4.0,98,0.00,,,-99.99,,2013-04-30 08:11:00,
2013-04-30 04:22:00,47.0,47.0,-100.00,SE,135,1.0,4.0,98,0.00,,,-99.99,,2013-04-30 08:22:00,
2013-04-30 04:32:00,47.0,47.0,-100.00,West,270,1.0,4.0,99,0.00,,,-99.99,,2013-04-30 08:32:00,
2013-04-30 04:42:00,46.0,46.0,-100.00,ENE,75,1.0,3.0,98,0.00,,,-99.99,,2013-04-30 08:42:00,
2013-04-30 04:52:00,46.0,46.0,-100.00,WNW,295,1.0,3.0,98,0.00,,,-99.99,,2013-04-30 08:52:00,
2013-04-30 05:01:00,47.0,46.0,-100.00,NNW,330,1.0,2.0,99,0.00,,,-99.99,,2013-04-30 09:01:00,
2013-04-30 05:11:00,46.0,46.0,-100.00,NNE,30,0.0,3.0,99,0.00,,,-99.99,,2013-04-30 09:11:00,
2013-04-30 05:22:00,46.0,46.0,-100.00,West,280,1.0,4.0,99,0.00,,,-99.99,,2013-04-30 09:22:00,
2013-04-30 05:33:00,46.0,46.0,-100.00,West,280,1.0,4.0,99,0.00,,,-99.99,,2013-04-30 09:33:00,
2013-04-30 05:43:00,46.0,46.0,-100.00,West,260,1.0,5.0,99,0.00,,,-99.99,,2013-04-30 09:43:00,
2013-04-30 05:52:00,46.0,45.0,-100.00,SW,235,0.0,4.0,98,0.00,,,-99.99,,2013-04-30 09:52:00,
2013-04-30 06:03:00,46.0,45.0,-100.00,WNW,285,1.0,6.0,99,0.00,,,-99.99,,2013-04-30 10:03:00,
2013-04-30 06:12:00,45.0,45.0,-100.00,West,275,1.0,5.0,98,0.00,,,-99.99,,2013-04-30 10:12:00,
2013-04-30 06:22:00,46.0,46.0,-100.00,West,275,1.0,6.0,99,0.00,,,-99.99,,2013-04-30 10:22:00,
2013-04-30 06:32:00,46.0,45.0,-100.00,ENE,60,1.0,3.0,99,0.00,,,-99.99,,2013-04-30 10:32:00,
2013-04-30 06:41:00,46.0,46.0,-100.00,WSW,245,2.0,5.0,99,0.00,,,-99.99,,2013-04-30 10:41:00,
2013-04-30 06:52:00,46.0,46.0,-100.00,WNW,285,2.0,6.0,99,0.00,,,-99.99,,2013-04-30 10:52:00,
2013-04-30 07:02:00,46.0,46.0,-100.00,West,265,2.0,6.0,99,0.00,,,-99.99,,2013-04-30 11:02:00,
2013-04-30 07:11:00,46.0,46.0,-100.00,ENE,70,1.0,6.0,99,0.00,,,-99.99,,2013-04-30 11:11:00,
2013-04-30 07:21:00,46.0,46.0,-100.00,West,275,1.0,6.0,99,0.00,,,-99.99,,2013-04-30 11:21:00,
2013-04-30 07:32:00,46.0,46.0,-100.00,West,275,1.0,6.0,99,0.00,,,-99.99,,2013-04-30 11:32:00,
2013-04-30 07:42:00,46.0,46.0,-100.00,ENE,60,1.0,7.0,99,0.00,,,-99.99,,2013-04-30 11:42:00,
2013-04-30 07:51:00,47.0,46.0,-100.00,SSE,155,1.0,4.0,99,0.00,,,-99.99,,2013-04-30 11:51:00,
2013-04-30 08:01:00,48.0,48.0,-100.00,NW,305,1.0,6.0,99,0.00,,,-99.99,,2013-04-30 12:01:00,
2013-04-30 08:11:00,49.0,48.0,-100.00,West,275,1.0,5.0,99,0.00,,,-99.99,,2013-04-30 12:11:00,
2013-04-30 08:21:00,49.0,49.0,-100.00,North,10,1.0,4.0,99,0.00,,,-99.99,,2013-04-30 12:21:00,
2013-04-30 08:31:00,49.0,49.0,-100.00,North,10,1.0,4.0,99,0.00,,,-99.99,,2013-04-30 12:31:00,
2013-04-30 08:41:00,52.0,52.0,-100.00,North,0,1.0,3.0,99,0.00,,,-99.99,,2013-04-30 12:41:00,
2013-04-30 08:51:00,53.0,53.0,-100.00,North,355,1.0,7.0,98,0.00,,,-99.99,,2013-04-30 12:51:00,
2013-04-30 09:01:00,55.0,54.0,-100.00,NE,50,1.0,6.0,97,0.00,,,-99.99,,2013-04-30 13:01:00,
2013-04-30 09:11:00,56.0,55.0,-100.00,West,260,1.0,4.0,96,0.00,,,-99.99,,2013-04-30 13:11:00,
2013-04-30 09:21:00,57.0,55.0,-100.00,SSW,210,1.0,7.0,92,0.00,,,-99.99,,2013-04-30 13:21:00,
2013-04-30 09:31:00,59.0,55.0,-100.00,SE,130,2.0,6.0,85,0.00,,,-99.99,,2013-04-30 13:31:00,
2013-04-30 09:41:00,59.0,55.0,-100.00,SE,135,2.0,4.0,85,0.00,,,-99.99,,2013-04-30 13:41:00,
2013-04-30 09:51:00,60.0,55.0,-100.00,South,175,2.0,3.0,83,0.00,,,-99.99,,2013-04-30 13:51:00,
2013-04-30 10:02:00,61.0,56.0,-100.00,SSW,195,2.0,3.0,83,0.00,,,-99.99,,2013-04-30 14:02:00,
2013-04-30 10:11:00,62.0,56.0,-100.00,SE,145,2.0,3.0,81,0.00,,,-99.99,,2013-04-30 14:11:00,
2013-04-30 10:21:00,62.0,56.0,-100.00,SE,145,2.0,3.0,81,0.00,,,-99.99,,2013-04-30 14:21:00,
2013-04-30 10:31:00,63.0,56.0,-100.00,SSE,150,3.0,6.0,77,0.00,,,-99.99,,2013-04-30 14:31:00,
2013-04-30 10:41:00,64.0,56.0,-100.00,SE,135,3.0,6.0,75,0.00,,,-99.99,,2013-04-30 14:41:00,
2013-04-30 10:52:00,63.0,55.0,-100.00,South,175,3.0,6.0,73,0.00,,,-99.99,,2013-04-30 14:52:00,
2013-04-30 11:01:00,64.0,55.0,-100.00,South,175,3.0,6.0,74,0.00,,,-99.99,,2013-04-30 15:01:00,
2013-04-30 11:11:00,64.0,55.0,-100.00,SSE,165,2.0,6.0,70,0.00,,,-99.99,,2013-04-30 15:11:00,
2013-04-30 11:21:00,65.0,56.0,-100.00,South,175,2.0,4.0,71,0.00,,,-99.99,,2013-04-30 15:21:00,
2013-04-30 11:32:00,66.0,56.0,-100.00,South,190,2.0,6.0,70,0.00,,,-99.99,,2013-04-30 15:32:00,
2013-04-30 11:42:00,65.0,55.0,-100.00,SSE,165,2.0,5.0,68,0.00,,,-99.99,,2013-04-30 15:42:00,
2013-04-30 11:52:00,67.0,55.0,-100.00,SSE,160,2.0,4.0,65,0.00,,,-99.99,,2013-04-30 15:52:00,
2013-04-30 12:02:00,67.0,56.0,-100.00,South,185,2.0,5.0,66,0.00,,,-99.99,,2013-04-30 16:02:00,
2013-04-30 12:12:00,68.0,56.0,-100.00,SSW,195,2.0,4.0,65,0.00,,,-99.99,,2013-04-30 16:12:00,
2013-04-30 12:23:00,67.0,55.0,-100.00,South,170,2.0,4.0,64,0.00,,,-99.99,,2013-04-30 16:23:00,
2013-04-30 12:33:00,68.0,55.0,-100.00,South,190,2.0,6.0,64,0.00,,,-99.99,,2013-04-30 16:33:00,
2013-04-30 12:42:00,69.0,55.0,-100.00,South,175,2.0,6.0,61,0.00,,,-99.99,,2013-04-30 16:42:00,
2013-04-30 12:52:00,70.0,56.0,-100.00,SE,140,1.0,4.0,62,0.00,,,-99.99,,2013-04-30 16:52:00,
2013-04-30 13:02:00,69.0,53.0,-100.00,South,190,1.0,4.0,58,0.00,,,-99.99,,2013-04-30 17:02:00,
2013-04-30 13:12:00,69.0,53.0,-100.00,SW,230,1.0,7.0,57,0.00,,,-99.99,,2013-04-30 17:12:00,
2013-04-30 13:22:00,69.0,55.0,-100.00,West,270,2.0,7.0,61,0.00,,,-99.99,,2013-04-30 17:22:00,
2013-04-30 13:32:00,70.0,53.0,-100.00,SE,140,2.0,7.0,53,0.00,,,-99.99,,2013-04-30 17:32:00,
2013-04-30 13:42:00,70.0,55.0,-100.00,SSW,205,2.0,6.0,58,0.00,,,-99.99,,2013-04-30 17:42:00,
2013-04-30 13:52:00,72.0,54.0,-100.00,NE,55,4.0,7.0,53,0.00,,,-99.99,,2013-04-30 17:52:00,
2013-04-30 14:01:00,72.0,53.0,-100.00,East,90,2.0,7.0,52,0.00,,,-99.99,,2013-04-30 18:01:00,
2013-04-30 14:11:00,71.0,53.0,-100.00,ENE,65,2.0,5.0,53,0.00,,,-99.99,,2013-04-30 18:11:00,
2013-04-30 14:22:00,71.0,54.0,-100.00,SE,135,1.0,4.0,54,0.00,,,-99.99,,2013-04-30 18:22:00,
2013-04-30 14:32:00,72.0,54.0,-100.00,SW,220,1.0,6.0,53,0.00,,,-99.99,,2013-04-30 18:32:00,
2013-04-30 14:42:00,72.0,52.0,-100.00,WSW,245,1.0,7.0,50,0.00,,,-99.99,,2013-04-30 18:42:00,
2013-04-30 14:51:00,73.0,54.0,-100.00,West,270,6.0,11.0,51,0.00,,,-99.99,,2013-04-30 18:51:00,
2013-04-30 15:01:00,73.0,56.0,-100.00,SSE,150,3.0,7.0,57,0.00,,,-99.99,,2013-04-30 19:01:00,
2013-04-30 15:11:00,73.0,56.0,-100.00,SSE,150,3.0,7.0,57,0.00,,,-99.99,,2013-04-30 19:11:00,
2013-04-30 15:22:00,73.0,52.0,-100.00,West,265,3.0,5.0,47,0.00,,,-99.99,,2013-04-30 19:22:00,
2013-04-30 15:32:00,74.0,55.0,-100.00,WSW,255,4.0,9.0,50,0.00,,,-99.99,,2013-04-30 19:32:00,
2013-04-30 15:42:00,73.0,54.0,-100.00,SW,235,2.0,6.0,51,0.00,,,-99.99,,2013-04-30 19:42:00,
2013-04-30 15:52:00,74.0,55.0,-100.00,ENE,60,2.0,5.0,49,0.00,,,-99.99,,2013-04-30 19:52:00,
2013-04-30 16:02:00,75.0,55.0,-100.00,NE,50,3.0,6.0,48,0.00,,,-99.99,,2013-04-30 20:02:00,
2013-04-30 16:11:00,75.0,54.0,-100.00,NNE,30,1.0,6.0,47,0.00,,,-99.99,,2013-04-30 20:11:00,
2013-04-30 16:21:00,76.0,53.0,-100.00,NNE,20,2.0,9.0,45,0.00,,,-99.99,,2013-04-30 20:21:00,
2013-04-30 16:32:00,75.0,53.0,-100.00,East,80,2.0,9.0,45,0.00,,,-99.99,,2013-04-30 20:32:00,
2013-04-30 16:42:00,75.0,53.0,-100.00,East,80,2.0,9.0,45,0.00,,,-99.99,,2013-04-30 20:42:00,
2013-04-30 16:52:00,74.0,53.0,-100.00,ESE,105,4.0,7.0,48,0.00,,,-99.99,,2013-04-30 20:52:00,
2013-04-30 17:02:00,75.0,55.0,-100.00,SE,130,1.0,6.0,50,0.00,,,-99.99,,2013-04-30 21:02:00,
2013-04-30 17:11:00,75.0,55.0,-100.00,SE,130,1.0,6.0,50,0.00,,,-99.99,,2013-04-30 21:11:00,
2013-04-30 17:22:00,76.0,54.0,-100.00,West,260,1.0,6.0,47,0.00,,,-99.99,,2013-04-30 21:22:00,
2013-04-30 17:32:00,76.0,52.0,-100.00,ESE,105,5.0,9.0,44,0.00,,,-99.99,,2013-04-30 21:32:00,
2013-04-30 17:42:00,75.0,52.0,-100.00,SE,145,1.0,6.0,44,0.00,,,-99.99,,2013-04-30 21:42:00,
2013-04-30 17:53:00,76.0,54.0,-100.00,ESE,115,1.0,7.0,46,0.00,,,-99.99,,2013-04-30 21:53:00,
2013-04-30 18:02:00,75.0,54.0,-100.00,SSE,150,1.0,5.0,48,0.00,,,-99.99,,2013-04-30 22:02:00,
2013-04-30 18:12:00,76.0,53.0,-100.00,East,90,3.0,6.0,45,0.00,,,-99.99,,2013-04-30 22:12:00,
2013-04-30 18:23:00,76.0,53.0,-100.00,East,80,2.0,6.0,45,0.00,,,-99.99,,2013-04-30 22:23:00,
2013-04-30 18:33:00,74.0,53.0,-100.00,SE,140,3.0,6.0,47,0.00,,,-99.99,,2013-04-30 22:33:00,
2013-04-30 18:42:00,74.0,52.0,-100.00,SE,125,2.0,6.0,45,0.00,,,-99.99,,2013-04-30 22:42:00,
2013-04-30 18:52:00,74.0,53.0,-100.00,ESE,110,2.0,6.0,46,0.00,,,-99.99,,2013-04-30 22:52:00,
2013-04-30 19:02:00,74.0,53.0,-100.00,ESE,110,2.0,6.0,46,0.00,,,-99.99,,2013-04-30 23:02:00,
2013-04-30 19:12:00,74.0,51.0,-100.00,SE,130,2.0,7.0,44,0.00,,,-99.99,,2013-04-30 23:12:00,
2013-04-30 19:22:00,73.0,53.0,-100.00,SE,135,2.0,6.0,49,0.00,,,-99.99,,2013-04-30 23:22:00,
2013-04-30 19:32:00,74.0,52.0,-100.00,SSE,150,2.0,4.0,46,0.00,,,-99.99,,2013-04-30 23:32:00,
2013-04-30 19:42:00,72.0,53.0,-100.00,SSE,165,1.0,2.0,52,0.00,,,-99.99,,2013-04-30 23:42:00,
2013-04-30 19:52:00,71.0,53.0,-100.00,SSE,160,2.0,3.0,53,0.00,,,-99.99,,2013-04-30 23:52:00,
2013-04-30 20:02:00,71.0,53.0,-100.00,SW,220,1.0,7.0,53,0.00,,,-99.99,,2013-05-01 00:02:00,
2013-04-30 20:11:00,71.0,53.0,-100.00,SW,235,3.0,7.0,53,0.00,,,-99.99,,2013-05-01 00:11:00,
2013-04-30 20:22:00,70.0,54.0,-100.00,West,270,3.0,8.0,57,0.00,,,-99.99,,2013-05-01 00:22:00,
2013-04-30 20:32:00,69.0,54.0,-100.00,WSW,255,1.0,6.0,60,0.00,,,-99.99,,2013-05-01 00:32:00,
2013-04-30 20:42:00,66.0,55.0,-100.00,SSE,155,0.0,4.0,67,0.00,,,-99.99,,2013-05-01 00:42:00,
2013-04-30 20:51:00,65.0,56.0,-100.00,SSW,205,0.0,5.0,72,0.00,,,-99.99,,2013-05-01 00:51:00,
2013-04-30 21:01:00,65.0,54.0,-100.00,West,270,2.0,7.0,67,0.00,,,-99.99,,2013-05-01 01:01:00,
2013-04-30 21:11:00,64.0,54.0,-100.00,South,180,1.0,8.0,71,0.00,,,-99.99,,2013-05-01 01:11:00,
2013-04-30 21:21:00,65.0,55.0,-100.00,West,280,3.0,7.0,69,0.00,,,-99.99,,2013-05-01 01:21:00,
2013-04-30 21:32:00,63.0,54.0,-100.00,WSW,245,0.0,6.0,73,0.00,,,-99.99,,2013-05-01 01:32:00,
2013-04-30 21:42:00,62.0,54.0,-100.00,West,260,1.0,6.0,75,0.00,,,-99.99,,2013-05-01 01:42:00,
2013-04-30 21:52:00,62.0,54.0,-100.00,West,260,1.0,6.0,75,0.00,,,-99.99,,2013-05-01 01:52:00,
2013-04-30 22:02:00,62.0,54.0,-100.00,SSE,165,0.0,4.0,75,0.00,,,-99.99,,2013-05-01 02:02:00,
2013-04-30 22:11:00,61.0,54.0,-100.00,West,270,1.0,4.0,77,0.00,,,-99.99,,2013-05-01 02:11:00,
2013-04-30 22:21:00,60.0,54.0,-100.00,NE,35,1.0,6.0,80,0.00,,,-99.99,,2013-05-01 02:21:00,
2013-04-30 22:32:00,60.0,54.0,-100.00,NE,35,1.0,6.0,80,0.00,,,-99.99,,2013-05-01 02:32:00,
2013-04-30 22:42:00,61.0,54.0,-100.00,ENE,70,1.0,7.0,79,0.00,,,-99.99,,2013-05-01 02:42:00,
2013-04-30 22:52:00,59.0,54.0,-100.00,SW,215,1.0,6.0,84,0.00,,,-99.99,,2013-05-01 02:52:00,
2013-04-30 23:02:00,59.0,54.0,-100.00,West,270,0.0,5.0,83,0.00,,,-99.99,,2013-05-01 03:02:00,
2013-04-30 23:11:00,58.0,54.0,-100.00,West,260,0.0,2.0,85,0.00,,,-99.99,,2013-05-01 03:11:00,
2013-04-30 23:21:00,59.0,54.0,-100.00,East,95,0.0,6.0,85,0.00,,,-99.99,,2013-05-01 03:21:00,
2013-04-30 23:33:00,59.0,54.0,-100.00,West,280,2.0,6.0,84,0.00,,,-99.99,,2013-05-01 03:33:00,
2013-04-30 23:43:00,58.0,54.0,-100.00,West,265,0.0,5.0,84,0.00,,,-99.99,,2013-05-01 03:43:00,
2013-04-30 23:53:00,58.0,54.0,-100.00,North,10,0.0,3.0,87,0.00,,,-99.99,,2013-05-01 03:53:00,